Weather History for Nassau Airport, Bahamas

Change the Weather History Date:

Thursday, February 6, 2014

  Actual Average Record
Temperature  
Mean Temperature 78 °F -  
Max Temperature 84 °F 78 °F - ()
Min Temperature 71 °F 62 °F - ()
Cooling Degree Days 12    
Growing Degree Days 28 (Base 50)    
Moisture  
Dew Point 70 °F    
Average Humidity 80    
Maximum Humidity 100    
Minimum Humidity 51    
Precipitation  
Precipitation 0.00 in 0.05 in - ()
Sea Level Pressure  
Sea Level Pressure 30.09 in    
Wind  
Wind Speed 3 mph ()    
Max Wind Speed 8 mph    
Max Gust Speed -    
Visibility 6.9 miles    
Events      
T = Trace of Precipitation, MM = Missing Value Source: Averaged Metar Reports

Daily Weather History Graph

Daily Weather History Graph

Search for Another Location

Airport:

Trip Planner

Search our weather history database for the weather conditions in past years. The results will help you decide how hot, cold, wet, or windy it might be!

Date:

Astronomy

Feb. 06, 2014 Rise Set
Actual Time 6:49 AM EST 5:58 PM EST
Civil Twilight 6:26 AM EST 6:21 PM EST
Nautical Twilight 5:59 AM EST 6:49 PM EST
Astronomical Twilight 5:32 AM EST 7:16 PM EST
Moon 11:30 AM EST (2/6) 12:04 AM EST (2/6)
Length of Visible Light 11h 55m
Length of Day
11h 08m
Waxing Crescent, 49% of the Moon is Illuminated
Feb 6
Waxing Crescent
Feb 6
First Quarter
Feb 14
Full
Feb 22
Last Quarter
Mar 1
New

Hourly Weather History & Observations

Time (EST) Temp. Heat Index Dew Point Humidity Pressure Visibility Wind Dir Wind Speed Gust Speed Precip Events Conditions
12:00 AM 75.2 °F - 69.8 °F 83% 30.09 in 6.2 mi ESE 3.5 mph - N/A   Partly Cloudy
1:00 AM 74 °F - 74 °F 98% 30.09 in 8 mi East 2.3 mph - -   Partly Cloudy
1:00 AM 73.4 °F - 73.4 °F 100% 30.09 in 6.2 mi Variable 2.3 mph - N/A   Scattered Clouds
2:00 AM 73.4 °F - 69.8 °F 88% 30.08 in 6.2 mi Calm Calm - N/A   Scattered Clouds
3:00 AM 73.4 °F - 69.8 °F 88% 30.08 in 6.2 mi Calm Calm - N/A   Partly Cloudy
4:00 AM 73 °F - 72 °F 97% 30.07 in 8 mi SE 2.3 mph - -   Scattered Clouds
4:00 AM 73.4 °F - 71.6 °F 94% 30.07 in 6.2 mi Variable 2.3 mph - N/A   Partly Cloudy
5:00 AM 73.4 °F - 69.8 °F 88% 30.06 in 6.2 mi SE 3.5 mph - N/A   Partly Cloudy
6:00 AM 73.4 °F - 68.0 °F 83% 30.08 in 6.2 mi SE 3.5 mph - N/A   Partly Cloudy
7:00 AM 72 °F - 71 °F 95% 30.10 in 8 mi East 3.5 mph - -   Scattered Clouds
7:00 AM 71.6 °F - 71.6 °F 100% 30.10 in 6.2 mi East 3.5 mph - N/A   Partly Cloudy
8:00 AM 75.2 °F - 68.0 °F 78% 30.09 in 6.2 mi Calm Calm - N/A   Partly Cloudy
9:00 AM 77.0 °F - 68.0 °F 74% 30.11 in 6.2 mi SE 8.1 mph - N/A   Partly Cloudy
10:00 AM 80 °F - 73 °F 73% 30.13 in 9 mi SE 6.9 mph - -   Scattered Clouds
10:00 AM 80.6 °F 85.4 °F 73.4 °F 79% 30.12 in 6.2 mi SE 6.9 mph - N/A   Partly Cloudy
11:00 AM 80.6 °F 82.7 °F 66.2 °F 61% 30.13 in 6.2 mi ESE 5.8 mph - N/A   Scattered Clouds
1:00 PM 83 °F - 72 °F 61% 30.09 in 9 mi ESE 5.8 mph - -   Partly Cloudy
3:00 PM 82.4 °F 83.4 °F 62.6 °F 51% 30.05 in 6.2 mi SSE 6.9 mph - N/A   Partly Cloudy
4:00 PM 84 °F - 72 °F 60% 30.07 in 9 mi ESE 6.9 mph - -   Partly Cloudy
4:00 PM 84.2 °F 89.6 °F 71.6 °F 66% 30.07 in 6.2 mi ESE 6.9 mph - N/A   Scattered Clouds
5:00 PM 78.8 °F - 68.0 °F 69% 30.08 in 6.2 mi SSE 6.9 mph - N/A   Partly Cloudy
6:00 PM 78.8 °F - 68.0 °F 69% 30.07 in 6.2 mi SE 5.8 mph - N/A   Partly Cloudy
7:00 PM 77 °F - 72 °F 79% 30.09 in 9 mi ESE 6.9 mph - -   Scattered Clouds
7:00 PM 77.0 °F - 71.6 °F 83% 30.09 in 6.2 mi ESE 6.9 mph - N/A   Unknown
8:00 PM 75.2 °F - 68.0 °F 78% 30.10 in 6.2 mi ESE 5.8 mph - N/A   Partly Cloudy
9:00 PM 75.2 °F - 68.0 °F 78% 30.10 in 6.2 mi ESE 5.8 mph - N/A   Partly Cloudy
10:00 PM 75 °F - 70 °F 81% 30.12 in 9 mi ESE 3.5 mph - -   Scattered Clouds
10:00 PM 75.2 °F - 69.8 °F 83% 30.11 in 6.2 mi ESE 3.5 mph - N/A   Partly Cloudy
11:00 PM 73.4 °F - 66.2 °F 78% 30.11 in 6.2 mi Calm Calm - N/A   Partly Cloudy